* Astronomy

Members Login
Username 
 
Password 
    Remember Me  
Post Info TOPIC: Chang Zheng-3C RB re-entry


L

Posts: 131433
Date:
RE: Chang Zheng-3C RB re-entry
Permalink  
 


Update
The Long March 3C rocket body re-entered the Earths atmosphere on the 28th September, 2011 @ 10:26 GMT  ± 1 hour.

CZ-3C RB
1 37211U 10057B   11271.29027218  .97631427 -17304-4  24870-2 0  3334
2 37211 020.0058 149.9591 0235890 358.4818 144.8995 15.98553655 18284

Inclination: 20.02°
Revolution Number: 1830
Predicted Location:  19°S, 237.2°E



__________________


L

Posts: 131433
Date:
Permalink  
 

Update
The Long March 3C rocket body is predicted to re-enter the Earths atmosphere on the 28th September, 2011 @ 10:32 GMT  ± 2 hours.

CZ-3C RB
1 37211U 10057B   11271.29027218  .97631427 -17304-4  24870-2 0  3334
2 37211 020.0058 149.9591 0235890 358.4818 144.8995 15.98553655 18284

cz3_280911b.gif
Expand (27kb, 857 x 564)

Period:       97.26 minutes
Inclination: 20.02°
Apogee:     1129 km
Perigee:     126 km
Revolution Number: 1830
Predicted Location:  19.9°S, 261.5°E



__________________


L

Posts: 131433
Date:
Permalink  
 

Update
The Long March 3C rocket body is predicted to re-enter the Earths atmosphere on the 28th September, 2011 @ 09:49 GMT  ± 8 hours.

CZ-3C RB
1 37211U 10057B   11270.83065281  .36699574 -15269-4  97164-3 0  3295
2 37211 020.0198 153.5281 0511828 351.1929 078.9220 15.33834405 18212

Period:       97.26 minutes
Inclination: 20.02°
Apogee:     1129 km
Perigee:     126 km
Revolution Number: 1830
Predicted Location:  20°N, 85.5°E



__________________


L

Posts: 131433
Date:
Permalink  
 

Update
The Long March 3C rocket body is predicted to re-enter the Earths atmosphere on the 28th September, 2011 @ 06:40 GMT  ± 14 hours.

CZ-3C RB
1 37211U 10057B   11270.31000484  .32781002 -14373-4  15873-2 0  3264
2 37211 020.0227 157.2705 0653315 343.9168 120.0487 14.96682423 18133

Period:       102.67 minutes
Inclination: 20.04°
Apogee:     1643 km
Perigee:     127 km
Revolution Number: 1828
Predicted Location:  20°N, 136.4°E



__________________


L

Posts: 131433
Date:
Permalink  
 

Update
The Long March 3C rocket body is predicted to re-enter the Earths atmosphere on the 28th September, 2011 @ 06:33 GMT  ± 24 hours.

CZ-3C RB
1 37211U 10057B   11269.59095277  .22349190 -13606-4  13729-2 0  3191
2 37211 020.0404 162.1250 0828215 335.0234 264.7040 14.54296076 18027

Period:       102.67 minutes
Inclination: 20.04°
Apogee:     1643 km
Perigee:     127 km
Revolution Number: 1830
Predicted Location:  15.8°N, 98°E



__________________


L

Posts: 131433
Date:
Permalink  
 

A Long March 3C rocket body that was launched on the 31st October, 2010, from the Xichang Satellite Launch Centre, for the Beidou (Compass) G4 satellite mission, is predicted to re-enter the Earths atmosphere on the 28th September, 2011 @ 05:32 GMT  ± 48 hours.

CZ-3C RB
1 37211U 10057B   11267.23558020  .13065172 -12229-4  13389-2 0  3096
2 37211 020.0484 176.5880 1173105 308.6376 196.7800 13.71499945 17696

Period:       107.02 minutes
Inclination: 20.04°
Apogee:     2052 km
Perigee:     125 km
Revolution Number: 1828
Predicted Location:  7°S, 262.1°E



__________________
Page 1 of 1  sorted by
 
Quick Reply

Please log in to post quick replies.



Create your own FREE Forum
Report Abuse
Powered by ActiveBoard